Temperature
10 10 10 10 10 10 10 10 10 10 10 10 10 10 10 10 9 9 9 9 9 9 9 9 9 9 9 9 9 9 9 9 9 8 8 8 8 8 9 9 9 9 9
10 10 10 10 9 9 9 9 9 9 9 9 9 9 9 9 9 9 9 9 9 9 9 9 9 9 9 9 9 8 8 8 8 8 8 8 8 8 8 8 8 8 8
9 9 9 9 9 9 9 9 9 9 9 9 9 9 9 9 9 9 9 8 8 8 8 8 8 8 8 8 8 8 8 8 8 7 7 7 7 7 7 7 7 8 8
9 9 9 9 9 9 8 8 8 8 8 8 8 8 8 8 8 8 8 8 8 8 8 8 8 8 8 8 7 7 7 7 7 7 7 7 7 7 7 7 7 7 7
8 8 8 8 8 8 8 8 8 8 8 8 8 8 8 8 8 8 7 7 7 7 7 7 7 7 7 7 7 7 7 6 6 6 6 6 6 6 6 6 6 6 7
8 8 7 7 7 7 7 7 7 7 7 7 7 7 7 7 7 7 7 7 7 7 7 7 7 7 7 7 7 6 6 6 6 6 5 6 5 5 6 6 6 6 6
7 7 7 7 7 7 7 7 7 6 6 7 6 6 6 6 6 6 6 6 6 6 6 6 6 6 6 6 6 6 6 6 5 5 5 5 5 5 5 5 5 5 5
7 7 6 6 6 6 6 6 6 6 6 6 6 5 5 5 5 5 6 5 5 5 5 5 5 6 5 5 5 5 5 5 5 5 4 4 4 4 4 5 4 5 5
6 6 6 6 6 6 6 6 6 5 5 5 5 5 5 5 4 5 5 5 5 5 5 5 5 5 5 5 5 5 5 5 4 4 4 4 4 4 4 4 4 4 4
6 6 6 5 5 5 5 5 5 5 5 4 5 4 4 4 4 4 4 4 4 4 4 4 4 4 4 4 4 4 4 4 4 4 4 4 4 4 4 4 4 4 3
5 5 5 5 5 5 5 5 4 4 4 4 4 4 4 4 3 3 3 3 4 4 4 4 4 4 4 4 3 4 4 4 4 3 3 3 3 3 4 4 3 3 3
5 5 5 5 4 4 4 4 4 4 4 4 3 3 3 3 3 3 3 3 3 3 3 3 3 3 3 3 3 3 3 3 3 3 3 3 3 3 3 3 3 3 3
5 5 4 4 4 4 4 4 4 3 3 3 3 3 3 3 3 3 2 2 2 2 3 3 3 3 2 2 2 3 3 2 2 2 2 2 3 3 3 3 3 3 3
4 4 4 4 4 3 3 3 3 3 3 3 3 2 2 2 2 2 2 2 1 1 2 2 2 2 2 2 2 2 2 2 2 2 2 2 2 2 2 2 2 2 2
4 4 3 3 3 3 3 3 3 2 2 2 2 2 2 2 2 2 2 1 1 1 1 1 1 1 1 1 1 1 1 1 1 2 2 2 2 2 2 2 1 1 1
3 3 3 3 3 3 2 2 2 2 2 2 2 2 2 2 1 1 1 1 0 0 -0 0 0 1 1 1 1 1 1 1 1 1 1 1 1 1 1 1 1 1 1
3 3 3 2 2 2 2 2 2 2 1 1 1 1 1 1 1 1 1 1 0 -0 -1 -0 0 0 0 0 0 0 0 0 0 1 1 1 1 1 0 0 0 0 0
2 2 2 2 2 2 2 1 1 1 1 1 1 1 1 1 0 0 0 -0 -0 -0 -1 -1 -0 -0 -0 -0 -0 -0 -0 0 0 0 0 0 0 0 0 -0 -0 -0 -0
2 2 2 2 1 1 1 1 1 1 1 1 0 0 0 0 -0 -0 -0 -0 -1 -1 -1 -1 -1 -1 -1 -1 -1 -1 -1 -0 -0 -0 -0 -0 -0 -0 -0 -0 -1 -1 -1
1 1 1 1 1 1 1 1 0 0 0 0 -0 -0 -0 -0 -0 -0 -1 -1 -1 -1 -1 -1 -2 -1 -1 -1 -1 -1 -1 -1 -1 -1 -1 -1 -1 -1 -1 -1 -1 -1 -1
1 1 1 1 1 1 0 0 -0 -0 -0 -0 -0 -0 -1 -1 -1 -1 -1 -1 -1 -1 -2 -2 -2 -2 -2 -2 -2 -2 -2 -2 -1 -1 -1 -1 -1 -1 -1 -1 -1 -2 -2
0 0 0 0 0 0 -0 -0 -0 -1 -1 -1 -1 -1 -1 -1 -1 -1 -1 -1 -2 -2 -2 -2 -2 -3 -3 -3 -3 -3 -3 -2 -2 -2 -2 -2 -2 -2 -2 -2 -2 -2 -2
-0 -0 -0 -0 -0 -0 -0 -1 -1 -1 -1 -1 -1 -1 -1 -1 -1 -1 -2 -2 -2 -2 -2 -2 -3 -3 -3 -3 -3 -3 -3 -3 -3 -2 -2 -2 -2 -2 -2 -2 -2 -3 -3
-0 -0 -1 -1 -1 -1 -1 -1 -1 -2 -2 -2 -2 -2 -2 -2 -2 -2 -2 -2 -2 -2 -2 -3 -3 -3 -3 -3 -3 -3 -3 -3 -3 -3 -3 -3 -2 -2 -2 -3 -3 -3 -3
-1 -1 -1 -1 -1 -1 -1 -1 -2 -2 -2 -2 -2 -2 -2 -2 -2 -2 -3 -3 -3 -3 -3 -3 -3 -3 -3 -3 -3 -3 -4 -4 -4 -3 -4 -4 -3 -3 -3 -3 -3 -3 -3
-1 -1 -1 -2 -2 -2 -2 -2 -2 -2 -2 -2 -3 -3 -2 -2 -3 -3 -3 -3 -3 -3 -3 -3 -3 -3 -3 -3 -3 -4 -4 -4 -4 -4 -4 -4 -4 -4 -4 -4 -4 -4 -4
Wind_Speed
2 3 3 3 3 3 3 2 2 2 3 3 3 3 3 3 3 2 3 7 8 7 6 5 5 5 5 5 5 6 6 6 6 7 7 7 8 8 9 9 9 9 9
2 2 3 3 3 3 2 2 2 2 2 2 2 2 2 2 2 2 2 4 6 7 7 6 6 5 5 5 6 6 6 6 7 7 7 7 8 8 9 9 9 10 10
2 2 2 2 2 2 2 2 2 2 1 2 2 2 2 2 2 2 2 2 3 5 7 7 7 7 6 6 6 6 6 6 7 7 8 8 8 9 9 9 9 10 10
2 2 2 2 2 2 1 1 1 1 1 1 1 1 1 1 1 2 2 3 3 3 4 7 7 7 7 7 6 6 6 6 6 7 8 8 8 9 9 10 10 10 10
1 1 1 1 1 2 1 1 0 0 0 1 1 1 1 1 1 1 2 3 3 3 3 4 5 7 7 7 7 6 6 6 7 7 8 9 8 9 9 10 10 10 11
1 1 1 1 1 1 1 1 1 0 1 1 0 0 0 0 0 1 1 2 2 3 4 4 3 4 6 7 7 7 7 7 7 7 8 8 9 9 9 10 10 10 11
2 1 1 1 1 1 1 1 1 1 1 0 0 0 0 1 1 0 0 0 1 2 3 4 3 4 3 5 6 8 8 8 8 8 8 9 9 9 10 11 11 11 11
2 2 2 1 1 1 1 1 1 1 0 0 1 1 1 2 2 2 2 1 1 1 2 3 3 4 4 4 5 7 8 8 8 9 9 10 10 10 10 11 11 12 12
2 2 2 2 2 1 2 2 2 2 1 1 1 2 2 2 2 2 3 2 2 2 2 3 3 4 4 4 5 5 8 8 9 9 10 10 11 11 11 12 12 12 13
2 2 2 2 2 2 2 2 2 2 3 2 1 2 2 2 2 2 2 2 2 3 3 3 3 4 5 4 5 6 8 8 9 10 11 11 11 12 12 13 12 12 12
3 3 3 3 3 3 3 3 3 3 3 3 2 2 2 2 3 3 3 3 3 3 3 4 3 4 5 5 5 7 8 8 9 10 11 11 12 12 13 12 12 12 13
3 3 4 4 3 3 3 3 3 3 3 3 3 3 3 3 3 3 4 4 4 3 4 4 4 4 5 5 6 7 8 8 9 10 11 11 12 12 12 12 13 13 13
3 4 4 4 4 4 3 3 3 4 4 4 3 3 3 4 3 3 4 5 5 4 4 4 4 4 4 5 6 8 8 9 9 10 11 11 12 13 12 13 13 13 13
4 4 5 5 5 5 4 4 3 4 4 4 4 4 4 4 4 4 4 4 5 4 5 5 3 4 4 5 6 8 8 9 10 10 11 11 12 12 12 12 13 13 14
3 4 5 5 5 5 5 4 4 4 4 4 4 5 4 4 4 4 4 4 4 5 5 4 3 3 4 6 7 8 9 10 11 11 11 11 11 11 12 12 12 13 14
4 4 4 4 4 4 4 4 4 4 5 4 4 4 5 4 4 4 4 4 5 5 6 5 5 5 6 6 8 9 9 11 11 10 10 10 11 11 12 12 12 13 13
4 4 4 4 4 4 4 4 4 4 5 4 4 5 5 5 4 4 4 4 5 5 7 7 5 5 6 7 7 8 8 8 8 9 10 10 11 11 11 12 12 13 13
3 4 4 4 4 4 4 5 4 4 5 5 5 5 5 4 5 5 4 5 5 5 6 8 7 5 7 7 7 7 7 7 8 8 10 10 10 10 10 11 12 12 13
3 3 4 4 4 4 4 4 4 5 5 6 6 6 6 5 6 5 5 5 5 5 6 7 7 6 5 5 6 6 7 6 7 8 9 9 9 9 10 10 11 12 12
3 3 4 4 4 4 4 4 4 5 5 5 5 5 6 6 6 6 5 6 5 5 5 6 6 5 5 5 5 6 6 6 6 6 7 8 8 8 9 9 10 11 11
4 4 4 4 4 4 4 4 5 5 5 5 5 5 5 6 6 6 5 5 5 5 5 5 5 5 5 5 5 5 6 6 6 5 5 6 6 6 6 7 8 9 10
3 3 4 4 5 4 4 5 5 5 5 5 5 5 5 6 6 8 8 8 7 6 6 6 6 6 7 6 6 5 6 6 5 4 6 6 5 5 5 6 8 10 10
3 4 4 4 5 5 5 6 6 5 5 6 6 5 4 4 5 5 6 7 8 8 8 7 7 8 8 7 6 7 6 6 7 6 6 7 5 6 6 7 8 9 10
4 4 4 4 5 5 5 6 6 6 6 6 6 6 5 5 4 4 5 5 6 6 7 7 7 8 7 7 6 7 7 7 7 5 4 5 6 6 6 7 7 8 8
4 4 4 4 5 5 5 6 6 5 5 6 6 6 6 6 6 6 5 5 6 6 6 7 9 9 9 9 7 5 5 5 5 5 3 3 5 6 6 6 5 5 7
4 3 4 4 4 5 5 6 6 4 5 5 5 6 7 7 7 7 6 6 6 6 5 5 6 7 7 6 6 5 5 5 4 3 2 3 4 4 4 4 4 5 6
Wind_Direction
86 83 72 67 62 61 64 59 54 73 78 67 54 47 45 40 38 42 57 50 38 37 41 44 40 43 46 41 39 35 35 30 25 18 12 6 0 356 353 351 349 343 338
81 85 84 69 60 56 54 56 50 55 63 56 46 36 34 32 33 37 47 63 49 40 37 36 31 28 29 25 25 25 25 19 15 10 2 357 353 349 349 346 343 343 343
84 82 83 79 64 63 66 66 58 47 64 58 41 27 25 30 28 36 40 38 49 48 38 28 22 19 19 17 17 15 15 9 3 358 355 351 346 342 341 343 343 340 338
95 103 95 84 71 74 75 84 72 62 71 58 30 17 11 36 40 42 49 42 31 23 31 29 19 15 11 12 10 9 7 1 356 351 349 346 342 341 340 339 338 337 334
124 131 117 98 103 93 82 91 103 83 15 9 359 356 2 15 62 72 63 47 37 21 9 24 23 19 10 8 3 2 1 358 355 351 346 344 339 336 333 332 332 331 330
154 152 134 124 126 124 106 99 102 78 46 353 330 345 8 259 107 82 57 54 41 28 20 7 357 7 13 7 1 356 354 353 351 344 339 338 334 331 329 326 324 325 325
166 170 158 148 152 155 150 146 130 133 69 9 274 314 206 215 230 205 35 28 34 25 23 8 351 344 345 357 1 353 345 342 341 337 334 331 326 324 323 322 323 322 320
178 184 184 170 173 176 172 164 159 198 197 244 275 277 264 223 217 229 232 244 281 342 351 350 343 340 336 333 345 346 339 335 335 332 329 326 325 323 321 320 319 316 314
190 195 198 186 176 186 194 193 199 212 232 245 272 274 265 261 284 221 232 246 277 293 310 321 324 327 324 322 322 330 334 329 326 326 326 324 321 319 318 317 315 313 311
198 206 208 204 193 197 208 205 209 222 224 233 247 266 284 297 270 267 242 245 271 281 297 300 303 310 308 305 306 317 324 321 321 321 322 319 318 317 317 316 314 313 312
203 206 213 212 211 211 213 210 214 221 227 235 245 251 249 255 261 266 270 274 280 276 288 286 288 296 297 301 301 313 316 314 316 317 317 317 315 314 314 314 314 313 312
210 215 218 219 218 217 215 217 217 223 232 236 239 244 250 248 250 256 271 283 287 287 290 279 275 287 292 300 306 316 312 310 311 312 314 316 316 313 313 313 312 311 310
220 218 215 221 221 221 220 218 218 224 230 232 234 243 248 250 254 257 265 279 284 288 279 268 267 275 285 296 303 313 302 304 305 309 311 313 313 312 311 310 310 310 310
227 221 215 220 222 221 219 217 219 224 227 228 233 237 243 248 248 248 255 269 281 279 268 269 276 268 280 292 299 299 295 298 301 304 305 307 308 308 308 308 308 309 309
224 221 216 217 219 218 217 213 220 221 221 226 231 234 240 246 249 250 249 251 258 271 275 274 271 280 297 299 298 295 295 297 297 297 299 302 304 305 307 307 306 307 307
217 216 221 219 214 215 215 214 220 221 220 226 230 236 241 245 246 246 245 248 253 261 268 275 280 293 298 294 295 294 293 294 288 290 295 299 302 303 304 305 305 305 306
216 214 218 221 220 217 212 212 218 218 222 227 230 236 242 246 246 245 245 246 250 254 263 276 283 286 288 290 295 295 296 293 290 289 293 296 297 299 301 303 304 304 305
222 217 215 218 221 220 214 214 218 222 225 227 231 235 240 240 243 247 246 247 249 252 260 272 280 282 286 291 294 296 298 296 292 292 293 293 296 299 301 302 304 305 306
225 219 217 219 219 219 219 219 222 227 231 233 233 234 237 237 244 247 249 253 254 256 258 265 276 283 290 297 298 297 298 298 296 295 291 290 295 297 299 303 305 306 308
227 225 228 228 224 221 219 222 225 230 235 237 239 240 240 238 244 248 250 252 254 256 258 263 271 279 290 298 298 300 302 300 300 302 294 289 289 288 291 298 303 307 309
228 229 231 233 228 223 219 224 228 231 236 241 244 244 244 246 252 255 254 252 251 254 259 263 267 276 283 297 297 300 296 301 300 297 300 294 293 289 290 294 299 308 311
237 234 233 234 235 230 217 227 238 240 236 238 245 246 245 242 246 251 254 256 257 256 259 263 267 271 277 285 293 295 298 301 299 301 303 297 296 292 292 294 305 309 310
238 238 239 238 243 240 226 231 234 241 239 240 243 245 245 245 246 254 255 253 257 257 259 262 265 268 276 279 283 285 286 291 290 300 303 292 297 295 297 294 301 306 310
237 241 244 244 249 244 232 236 240 244 247 246 245 244 245 249 246 248 254 258 264 263 259 258 262 269 274 277 273 276 283 286 290 287 292 288 300 301 302 293 293 301 311
240 242 246 246 249 250 238 240 242 245 245 247 247 246 246 249 247 244 247 257 268 274 264 256 263 269 272 276 278 276 276 276 286 287 293 287 298 308 301 289 292 295 303
240 245 247 249 250 255 250 249 245 242 246 249 246 243 242 247 249 243 244 249 259 267 269 269 263 265 267 266 257 258 263 265 280 281 288 290 294 314 305 295 305 313 312
Height
1532 1533 1533 1533 1533 1533 1533 1534 1534 1534 1534 1534 1534 1534 1534 1534 1534 1534 1534 1533 1533 1533 1532 1532 1531 1531 1530 1529 1528 1527 1526 1526 1525 1524 1523 1522 1521 1520 1519 1518 1517 1516 1515
1531 1531 1531 1531 1532 1532 1532 1532 1532 1533 1533 1533 1533 1533 1533 1533 1533 1532 1532 1532 1532 1531 1531 1530 1530 1529 1528 1528 1527 1526 1525 1524 1523 1522 1521 1520 1519 1518 1517 1516 1515 1514 1513
1530 1530 1530 1530 1530 1530 1531 1531 1531 1531 1531 1531 1531 1531 1531 1531 1531 1531 1530 1530 1530 1529 1529 1528 1528 1527 1526 1526 1525 1524 1523 1522 1521 1520 1519 1518 1517 1516 1515 1514 1513 1511 1510
1528 1528 1528 1528 1528 1529 1529 1529 1529 1530 1530 1529 1529 1529 1529 1529 1529 1528 1528 1528 1528 1527 1527 1526 1526 1525 1524 1523 1522 1522 1520 1520 1519 1518 1517 1516 1515 1514 1512 1511 1510 1509 1507
1526 1527 1527 1527 1527 1527 1527 1527 1527 1527 1527 1527 1527 1527 1527 1526 1526 1526 1525 1525 1525 1525 1524 1524 1523 1523 1522 1521 1520 1519 1518 1517 1516 1515 1514 1513 1512 1511 1510 1508 1507 1506 1505
1524 1524 1525 1525 1525 1525 1525 1525 1525 1525 1525 1525 1525 1525 1524 1524 1524 1523 1523 1523 1522 1522 1522 1521 1521 1520 1519 1518 1517 1516 1515 1514 1513 1512 1511 1510 1509 1508 1507 1506 1504 1503 1501
1522 1522 1522 1522 1523 1523 1523 1523 1523 1523 1523 1523 1523 1523 1522 1522 1521 1521 1520 1520 1520 1519 1519 1518 1518 1517 1516 1515 1514 1513 1512 1511 1510 1509 1508 1507 1506 1505 1504 1502 1501 1500 1498
1519 1520 1520 1520 1520 1521 1521 1521 1521 1521 1521 1521 1521 1521 1521 1521 1519 1518 1518 1518 1517 1517 1516 1515 1515 1514 1513 1512 1511 1510 1509 1508 1507 1506 1505 1504 1503 1502 1500 1499 1498 1496 1495
1517 1517 1517 1518 1518 1518 1518 1518 1518 1519 1519 1519 1519 1520 1520 1519 1518 1517 1516 1515 1515 1514 1513 1512 1512 1511 1510 1509 1508 1507 1506 1505 1504 1503 1502 1500 1499 1498 1497 1495 1494 1493 1491
1514 1514 1514 1515 1515 1515 1515 1515 1515 1516 1516 1516 1516 1516 1517 1517 1517 1515 1514 1513 1512 1511 1510 1509 1508 1507 1506 1505 1504 1503 1502 1501 1500 1499 1498 1497 1495 1494 1493 1492 1490 1489 1487
1510 1511 1511 1511 1512 1512 1512 1512 1512 1513 1513 1513 1513 1513 1513 1513 1513 1513 1512 1511 1510 1509 1508 1506 1505 1504 1503 1502 1501 1500 1498 1497 1496 1495 1494 1493 1491 1490 1489 1487 1486 1484 1483
1507 1507 1508 1508 1508 1509 1509 1509 1509 1509 1510 1510 1510 1510 1510 1510 1510 1510 1509 1508 1507 1506 1504 1503 1502 1501 1500 1499 1497 1496 1495 1494 1492 1491 1490 1489 1487 1486 1484 1483 1482 1480 1478
1504 1504 1504 1504 1505 1505 1505 1506 1506 1506 1506 1506 1506 1506 1506 1506 1506 1506 1506 1505 1503 1502 1501 1500 1499 1498 1497 1495 1494 1492 1491 1490 1489 1487 1486 1485 1483 1482 1480 1479 1477 1475 1474
1500 1500 1500 1501 1501 1501 1502 1502 1502 1502 1503 1503 1503 1503 1503 1503 1503 1502 1502 1502 1500 1499 1498 1497 1496 1494 1493 1492 1490 1489 1487 1486 1485 1483 1482 1480 1479 1477 1476 1474 1472 1471 1469
1496 1497 1497 1497 1497 1497 1498 1498 1498 1498 1499 1499 1499 1499 1499 1499 1498 1498 1498 1498 1499 1496 1495 1494 1493 1491 1490 1488 1487 1485 1483 1482 1481 1479 1478 1476 1475 1473 1471 1469 1468 1466 1464
1493 1493 1493 1493 1493 1493 1494 1494 1494 1495 1495 1495 1495 1495 1495 1495 1494 1494 1494 1494 1494 1493 1491 1490 1489 1487 1486 1484 1483 1481 1479 1478 1476 1475 1473 1472 1470 1469 1467 1465 1463 1462 1460
1488 1489 1489 1489 1490 1490 1490 1490 1490 1491 1491 1491 1491 1491 1491 1491 1490 1490 1490 1489 1489 1489 1487 1485 1485 1483 1482 1480 1479 1477 1475 1474 1472 1471 1469 1468 1466 1464 1462 1460 1459 1457 1455
1485 1485 1486 1486 1486 1486 1486 1486 1486 1487 1487 1487 1487 1487 1487 1487 1486 1486 1485 1485 1485 1484 1483 1481 1480 1479 1477 1476 1474 1473 1471 1470 1468 1466 1465 1463 1462 1460 1458 1456 1454 1452 1450
1481 1481 1482 1482 1482 1482 1482 1483 1483 1483 1483 1484 1484 1483 1483 1483 1482 1482 1481 1481 1480 1480 1479 1477 1475 1474 1473 1472 1470 1469 1467 1466 1464 1463 1461 1459 1457 1456 1454 1452 1450 1448 1446
1478 1478 1478 1478 1478 1479 1479 1479 1479 1479 1479 1480 1479 1479 1479 1479 1478 1478 1477 1477 1476 1475 1475 1473 1472 1470 1469 1468 1466 1465 1463 1462 1460 1459 1457 1455 1453 1451 1450 1448 1446 1443 1441
1474 1474 1474 1475 1475 1475 1475 1475 1475 1475 1476 1475 1475 1475 1475 1475 1474 1474 1473 1473 1472 1471 1470 1469 1468 1466 1465 1464 1463 1461 1460 1458 1456 1455 1453 1451 1449 1447 1446 1443 1441 1439 1437
1471 1471 1470 1471 1471 1471 1471 1472 1472 1472 1471 1471 1471 1471 1471 1470 1470 1470 1469 1469 1468 1467 1466 1465 1464 1463 1461 1461 1460 1458 1457 1454 1452 1452 1450 1447 1446 1443 1442 1440 1437 1435 1433
1467 1467 1467 1467 1467 1467 1468 1468 1468 1468 1467 1467 1467 1467 1466 1466 1466 1465 1465 1464 1463 1463 1462 1462 1460 1459 1458 1457 1456 1454 1453 1451 1449 1448 1446 1443 1442 1440 1438 1436 1434 1431 1429
1463 1463 1463 1463 1463 1463 1464 1464 1464 1464 1463 1463 1463 1462 1462 1462 1461 1461 1460 1460 1459 1458 1458 1457 1456 1455 1455 1454 1453 1451 1450 1448 1446 1445 1443 1440 1438 1436 1434 1432 1430 1428 1426
1459 1459 1459 1459 1459 1459 1459 1459 1460 1459 1459 1458 1458 1458 1458 1457 1457 1457 1456 1455 1454 1454 1454 1453 1452 1451 1451 1450 1448 1447 1445 1444 1442 1440 1440 1438 1435 1433 1431 1429 1427 1425 1423
1455 1455 1455 1455 1455 1455 1455 1455 1455 1455 1454 1454 1454 1453 1453 1453 1453 1452 1452 1451 1450 1450 1449 1449 1448 1447 1446 1445 1444 1443 1442 1441 1439 1437 1436 1435 1433 1431 1428 1426 1425 1422 1420